Location: Kuffner-Sternwarte
(48.2130°N, 16.2960°E)
Time: 06:28:44
(UTC+02:00)

ACS3 Solar Sail - Pass Details

Date: 27 September 2024
Orbit: 963 x 1036 km, 97.4° (Epoch: 04 October)

Event Time Altitude Azimuth Distance (km) Brightness Sun altitude
Exits shadow 22:57:37 - 245° (WSW) 3,057 4.5 -38.4°
Reaches altitude 10° 22:58:58 10° 256° (WSW) 2,836 4.4 -38.5°
Maximum altitude 23:01:28 12° 279° (W) 2,663 4.4 -38.7°
Drops below altitude 10° 23:03:59 10° 303° (WNW) 2,836 4.8 -39.0°
Sets 23:08:26 0° 332° (NNW) 3,783 5.8 -39.4°
